sat.trackr.live / text

‹ back to catalog

STARLINK-30436

NORAD 57880 · 2023-144S

PAYLOAD ACTIVE UNKNOWN

§ Identity

Operator
Country
US
Launch date
2023-09-16
Launch site
AFETR
Launch vehicle
Mass (kg)
RCS (m²)

Purposes: comms

External: N2YO · Heavens-Above · Gunter

§ Orbital elements

Epoch: 2026-05-25T05:10:51.223296Z

Period
94.27 min
Inclination
43.0022°
Eccentricity
0.0001613
Mean motion
15.27568755 rev/d
Perigee alt
482.0 km
Apogee alt
484.2 km
Semi-major
6,861.2 km
B*
3.3680e-7
RAAN
212.8024°
Arg perigee
269.0908°
Mean anomaly
90.9759°
Rev number
14,934

§ Raw data

STARLINK-304361 57880U 23144S   26145.21587064 -.00000253  00000+0  33680-6 0  99992 57880  43.0022 212.8024 0001613 269.0908  90.9759 15.27568755149346

JSON: /api/v1/satellites/57880 · /tle

For live sub-satellite position, see the globe view (requires WebGL).

§ Visibility from observer

Set your observer location to see the next 7 days of passes ≥ 10°. The values pass through the URL so the page stays shareable.

No JS? Fill the form by hand. The geolocation button needs JavaScript.